Flag for Belarus Weather past 2 weeks in Barysaw, Belarus

Now
64 °F

Sunny.


Feels Like: 64 °F
Forecast: 56 / 84 °F
Wind: No wind

Location: Minsk

Current Time: Aug 3, 2015 at 10:33:58 PM

Latest Report: Aug 3, 2015 at 10:00 PM


Visibility: 10 mi

Pressure: 30.15 "Hg

Humidity: 73%

Dew point: 55 °F

Location of BarysawLocation

Historic Weather in Barysaw — Graph

°F

Barysaw temperature yesterday

Maximum temperature yesterday: 75 °F (at 4:30 PM)
Minimum temperature yesterday: 41 °F (at 5:00 AM)
Average temperature yesterday: 59 °F

Past Weeks' High & Low Weather Summary

 TemperatureHumidityPressure
High84 °F (Jul 26, 12:30 PM)100% (Jul 20, 3:30 AM)30.30 "Hg (Jul 20, 3:30 AM)
Low41 °F (Aug 2, 5:00 AM)25% (Aug 3, 6:00 PM)29.53 "Hg (Jul 20, 6:00 AM)
Average63 °F69%29.89 "Hg
* Reported Jul 19 9:00 PM — Aug 3 9:30 PM, Barysaw, Weather by CustomWeather, © 2015

Note: Actual official high and low records may vary slightly from our data, if they occured in-between our weather recording intervals... More about our weather records

Advertising

Barysaw weather history for previous 24 hours

 ConditionsComfort  
Time TempWeatherWind HumidityBarometerVisibility
9:30 PM
Mon, Aug 3
66 °FSunny.No wind64%30.15 "Hg10 mi
9:00 PM68 °FSunny.No wind64%30.12 "Hg10 mi
8:30 PM72 °FSunny.No wind53%30.12 "Hg10 mi
8:00 PM77 °FSunny.No wind39%30.12 "Hg10 mi
7:30 PM82 °FSunny.1 mph30%30.12 "Hg10 mi
7:00 PM82 °FPassing clouds.6 mph28%30.12 "HgN/A
6:30 PM82 °FPassing clouds.3 mph26%30.12 "HgN/A
6:00 PM84 °FPassing clouds.6 mph25%30.12 "HgN/A
5:30 PM82 °FPassing clouds.6 mph28%30.15 "HgN/A
5:00 PM82 °FPassing clouds.6 mph28%30.15 "HgN/A
4:30 PM82 °FPassing clouds.6 mph28%30.15 "HgN/A
4:00 PM82 °FPassing clouds.8 mph26%30.15 "HgN/A
3:30 PM82 °FPassing clouds.8 mph26%30.15 "HgN/A
3:00 PM82 °FPassing clouds.8 mph30%30.15 "HgN/A
2:30 PM82 °FPartly sunny.6 mph28%30.18 "HgN/A
2:00 PM82 °FPartly sunny.3 mph28%30.18 "HgN/A
1:30 PM81 °FPartly sunny.6 mph32%30.18 "HgN/A
1:00 PM79 °FPartly sunny.6 mph32%30.18 "HgN/A
12:30 PM81 °FPassing clouds.6 mph30%30.18 "HgN/A
12:00 PM79 °FPassing clouds.6 mph34%30.18 "HgN/A
11:30 AM79 °FPassing clouds.6 mph34%30.18 "HgN/A
11:00 AM77 °FPassing clouds.6 mph39%30.18 "HgN/A
10:30 AM73 °FPassing clouds.6 mph47%30.18 "HgN/A
10:00 AM72 °FPassing clouds.6 mph47%30.18 "HgN/A
9:30 AM72 °FPassing clouds.3 mph47%30.18 "HgN/A
9:00 AM68 °FPassing clouds.6 mph53%30.18 "HgN/A
8:30 AM66 °FPassing clouds.6 mph52%30.18 "HgN/A
8:00 AM66 °FSunny.1 mph52%30.21 "Hg10 mi
7:30 AM59 °FSunny.1 mph77%30.21 "Hg10 mi
7:00 AM55 °FSunny.No wind82%30.21 "Hg10 mi
6:30 AM52 °FSunny.No wind88%30.21 "Hg10 mi
6:00 AM52 °FClear.No wind88%30.21 "Hg10 mi
5:30 AM50 °FClear.No wind88%30.21 "Hg10 mi
5:00 AM50 °FClear.No wind88%30.21 "Hg10 mi
4:30 AM52 °FPassing clouds.3 mph82%30.21 "HgN/A
4:00 AM50 °FClear.1 mph88%30.21 "Hg10 mi
3:30 AM50 °FClear.1 mph88%30.21 "Hg10 mi
3:00 AM52 °FClear.3 mph82%30.21 "Hg10 mi
2:30 AM50 °FClear.3 mph88%30.21 "Hg10 mi
2:00 AM50 °FClear.3 mph88%30.24 "Hg10 mi
1:30 AM52 °FClear.1 mph88%30.24 "Hg10 mi
1:00 AM50 °FClear.3 mph94%30.24 "Hg10 mi
12:30 AM52 °FClear.No wind82%30.24 "Hg10 mi
11:30 PM
Sun, Aug 2
52 °FClear.No wind88%30.24 "Hg10 mi
11:00 PM54 °FClear.No wind82%30.24 "Hg10 mi
10:30 PM55 °FClear.No wind77%30.24 "HgN/A
10:00 PM55 °FClear.No wind77%30.21 "Hg5 mi
Weather by CustomWeather, © 2015

See weather overviewHow to use our weather pages